Home   Weather   Kristiansund   Past weeks

Flag for Norway Past Weather in Kristiansund, Norway — Yesterday and Last 2 Weeks

Now
43 °F

Passing clouds.


Feels Like: 35 °F
Forecast: 40 / 42 °F
Wind: 16 mph from Southwest

Location: Kristiansund / Kvernberget

Current Time: Jan 22, 2017 at 5:32:48 pm

Latest Report: Jan 22, 2017 at 4:50 pm


Visibility: N/A

Pressure: 30.01 "Hg

Humidity: 81%

Dew Point: 37 °F

Location of KristiansundLocation

Past Weather in Kristiansund — Graph

°F

Kristiansund Temperature Yesterday

Maximum temperature yesterday: 45 °F (at 12:20 am)
Minimum temperature yesterday: 43 °F (at 6:50 pm)
Average temperature yesterday: 44 °F

High & Low Weather Summary for the Past Weeks

 TemperatureHumidityPressure
High48 °F (Jan 8, 6:20 am)100% (Jan 10, 6:50 am)30.33 "Hg (Jan 10, 6:50 am)
Low27 °F (Jan 16, 7:50 am)53% (Jan 10, 10:20 pm)28.56 "Hg (Jan 12, 3:50 am)
Average39 °F82%29.73 "Hg
* Reported Jan 7 4:20 pm — Jan 22 4:20 pm, Kristiansund, Weather by CustomWeather, © 2017

Note: Actual official high and low records may vary slightly from our data, if they occured in-between our weather recording intervals... More about our weather records

Advertising

Kristiansund Weather History for the Previous 24 Hours

Scroll right to see more
 ConditionsComfort  
Time TempWeatherWind HumidityBarometerVisibility
4:20 pm
Sun, Jan 22
43 °FSprinkles. Partly cloudy.14 mph81%30.01 "HgN/A
3:50 pm43 °FSprinkles. Broken clouds.16 mph81%30.04 "HgN/A
3:20 pm43 °FSprinkles. Broken clouds.16 mph81%30.04 "HgN/A
2:50 pm45 °FSprinkles. Partly sunny.16 mph71%30.04 "HgN/A
2:20 pm45 °FPartly sunny.15 mph71%30.04 "HgN/A
1:50 pm45 °FPartly sunny.15 mph71%30.04 "HgN/A
1:20 pm45 °FPartly sunny.15 mph71%30.04 "HgN/A
12:50 pm45 °FPartly sunny.15 mph71%30.07 "HgN/A
12:20 pm45 °FOvercast.15 mph71%30.07 "HgN/A
11:50 am45 °FMostly cloudy.17 mph71%30.07 "HgN/A
11:20 am45 °FBroken clouds.15 mph71%30.07 "HgN/A
10:50 am45 °FLight rain. More clouds than sun.16 mph71%30.09 "HgN/A
10:20 am45 °FOvercast.17 mph71%30.09 "HgN/A
9:50 am45 °FOvercast.17 mph71%30.09 "HgN/A
9:20 am45 °FOvercast.16 mph71%30.09 "HgN/A
8:50 am45 °FMostly cloudy.15 mph71%30.09 "HgN/A
8:20 am45 °FOvercast.16 mph71%30.09 "HgN/A
7:50 am45 °FOvercast.18 mph71%30.09 "HgN/A
7:20 am45 °FPassing clouds.21 mph71%30.09 "HgN/A
6:50 am45 °FPassing clouds.21 mph71%30.12 "HgN/A
6:20 am45 °FPassing clouds.18 mph71%30.12 "HgN/A
5:50 am45 °FPassing clouds.17 mph71%30.12 "HgN/A
5:20 am45 °FMostly cloudy.15 mph71%30.12 "HgN/A
4:50 am45 °FPassing clouds.15 mph71%30.12 "HgN/A
4:20 am45 °FPassing clouds.18 mph76%30.15 "HgN/A
3:50 am45 °FOvercast.14 mph76%30.15 "HgN/A
3:20 am45 °FOvercast.13 mph76%30.15 "HgN/A
2:50 am45 °FOvercast.13 mph76%30.18 "HgN/A
2:20 am45 °FOvercast.15 mph76%30.18 "HgN/A
1:50 am45 °FOvercast.12 mph81%30.18 "HgN/A
1:20 am43 °FMostly cloudy.10 mph87%30.18 "HgN/A
12:50 am43 °FMostly cloudy.8 mph87%30.21 "HgN/A
12:20 am43 °FMostly cloudy.7 mph87%30.21 "HgN/A
11:50 pm
Sat, Jan 21
43 °FOvercast.7 mph93%30.21 "HgN/A
11:20 pm43 °FOvercast.12 mph93%30.21 "HgN/A
10:50 pm43 °FMostly cloudy.3 mph93%30.21 "HgN/A
10:20 pm43 °FLow clouds.7 mph93%30.21 "HgN/A
9:50 pm43 °FMostly cloudy.9 mph93%30.21 "HgN/A
9:20 pm43 °FMostly cloudy.2 mph93%30.21 "HgN/A
8:50 pm43 °FMostly cloudy.No wind93%30.21 "HgN/A
8:20 pm43 °FMostly cloudy.No wind93%30.24 "HgN/A
7:50 pm43 °FPartly cloudy.No wind93%30.24 "HgN/A
7:20 pm43 °FPartly cloudy.No wind87%30.24 "HgN/A
6:50 pm43 °FPartly cloudy.1 mph93%30.24 "HgN/A
6:20 pm45 °FPartly cloudy.3 mph87%30.27 "HgN/A
5:50 pm45 °FPartly cloudy.9 mph81%30.27 "HgN/A
5:20 pm45 °FPartly cloudy.12 mph87%30.27 "HgN/A
Weather by CustomWeather, © 2017

See weather overviewHow to use our weather pages